Weather History for Muskegon, MI

Change the Weather History Date:

Saturday, October 20, 2012

  Actual Average Record
Temperature  
Mean Temperature 48 °F 49 °F  
Max Temperature 57 °F 57 °F 80 °F (1971)
Min Temperature 39 °F 41 °F 24 °F (1952)
Degree Days  
Heating Degree Days 17 16  
Month to date heating degree days 275 256  
Since 1 July heating degree days 417 429  
Cooling Degree Days 0 0  
Month to date cooling degree days 0 2  
Year to date cooling degree days 925 563  
Moisture  
Dew Point 43 °F    
Average Humidity 79    
Maximum Humidity 92    
Minimum Humidity 66    
Precipitation  
Precipitation 0.06 in 0.10 in 1.87 in (1995)
Month to date precipitation 4.55 1.99  
Year to date precipitation 25.82 26.46  
Snow  
Snow 0.00 in 0.00 in 0.40 in (1992)
Month to date snowfall T 0.0  
Since 1 July snowfall T 0.0  
Since 1 September snowfall T 0.0  
Snow Depth 0.00 in    
Sea Level Pressure  
Sea Level Pressure 29.74 in    
Wind  
Wind Speed 4 mph (NW)    
Max Wind Speed 19 mph    
Max Gust Speed 22 mph    
Visibility 10 miles    
Events Rain    
T = Trace of Precipitation, MM = Missing Value Source: NWS Daily Summary

Daily Weather History Graph

Daily Weather History Graph

Search for Another Location

Airport:

Trip Planner

Search our weather history database for the weather conditions in past years. The results will help you decide how hot, cold, wet, or windy it might be!

Date:

Astronomy

Oct. 20, 2012 Rise Set
Actual Time 8:05 AM EDT 6:53 PM EDT
Civil Twilight 7:36 AM EDT 7:22 PM EDT
Nautical Twilight 7:03 AM EDT 7:55 PM EDT
Astronomical Twilight 6:30 AM EDT 8:28 PM EDT
Moon 1:45 PM EDT (10/20) 11:34 PM EDT (10/20)
Length of Visible Light 11h 45m
Length of Day
10h 47m
Waxing Crescent, 34% of the Moon is Illuminated
Oct 20
Waxing Crescent
Oct 21
First Quarter
Oct 29
Full
Nov 6
Last Quarter
Nov 13
New

Hourly Weather History & Observations

Time (EDT) Temp. Windchill Dew Point Humidity Pressure Visibility Wind Dir Wind Speed Gust Speed Precip Events Conditions
12:14 AM 46.4 °F 45.2 °F 44.6 °F 93% 29.57 in 10.0 mi NNW 3.5 mph - N/A   Overcast
12:53 AM 46.4 °F - 42.8 °F 87% 29.57 in 10.0 mi Calm Calm - N/A   Mostly Cloudy
12:55 AM 46.0 °F - 43.0 °F 89% 29.58 in 10.0 mi Calm Calm - N/A   Mostly Cloudy
1:55 AM 45.0 °F - 43.0 °F 93% 29.59 in 10.0 mi Calm Calm - N/A   Overcast
2:55 AM 45.0 °F - 43.0 °F 93% 29.61 in 8.0 mi Calm Calm - N/A   Overcast
3:55 AM 46.9 °F - 44.1 °F 90% 29.62 in 10.0 mi Calm Calm - 0.00 in Rain Light Rain
4:55 AM 46.9 °F - 44.1 °F 90% 29.62 in 7.0 mi Calm Calm - 0.02 in   Overcast
5:55 AM 46.9 °F - 43.0 °F 86% 29.64 in 10.0 mi Calm Calm - N/A   Overcast
6:55 AM 46.9 °F - 43.0 °F 86% 29.65 in 10.0 mi North 3.5 mph - 0.02 in Rain Light Rain
7:55 AM 46.0 °F - 43.0 °F 89% 29.67 in 10.0 mi Calm Calm - 0.00 in   Overcast
8:55 AM 46.9 °F - 43.0 °F 86% 29.69 in 10.0 mi Calm Calm - N/A   Mostly Cloudy
9:55 AM 51.1 °F - 45.0 °F 80% 29.71 in 10.0 mi NNW 5.8 mph - N/A   Mostly Cloudy
10:55 AM 50.0 °F - 44.1 °F 80% 29.73 in 6.0 mi WNW 6.9 mph - 0.01 in Rain Light Rain
11:55 AM 54.0 °F - 46.0 °F 75% 29.74 in 10.0 mi NW 9.2 mph - 0.01 in   Mostly Cloudy
12:55 PM 55.0 °F - 44.1 °F 67% 29.75 in 10.0 mi NW 12.7 mph - N/A   Mostly Cloudy
1:32 PM 53.6 °F - 44.6 °F 72% 29.75 in 10.0 mi NW 12.7 mph - N/A   Mostly Cloudy
1:55 PM 55.9 °F - 45.0 °F 67% 29.76 in 10.0 mi NW 9.2 mph 18.4 mph N/A   Scattered Clouds
2:35 PM 55.4 °F - 44.6 °F 67% 29.76 in 10.0 mi WNW 15.0 mph - N/A   Mostly Cloudy
2:55 PM 55.0 °F - 45.0 °F 69% 29.77 in 10.0 mi WNW 15.0 mph - N/A   Mostly Cloudy
3:55 PM 55.0 °F - 45.0 °F 69% 29.79 in 10.0 mi WNW 19.6 mph - N/A   Mostly Cloudy
4:55 PM 54.0 °F - 44.1 °F 69% 29.82 in 10.0 mi NW 11.5 mph - N/A   Mostly Cloudy
5:21 PM 53.6 °F - 44.6 °F 72% 29.82 in 10.0 mi WNW 13.8 mph - N/A   Mostly Cloudy
5:55 PM 53.1 °F - 42.1 °F 66% 29.82 in 10.0 mi NW 10.4 mph - N/A   Scattered Clouds
6:55 PM 51.1 °F - 42.1 °F 71% 29.85 in 10.0 mi NW 3.5 mph - N/A   Scattered Clouds
7:12 PM 51.8 °F - 42.8 °F 71% 29.84 in 10.0 mi WSW 3.5 mph - N/A   Mostly Cloudy
7:49 PM 50.0 °F - 42.8 °F 76% 29.85 in 10.0 mi Calm Calm - N/A   Scattered Clouds
7:55 PM 50.0 °F - 42.1 °F 74% 29.86 in 10.0 mi Calm Calm - N/A   Scattered Clouds
8:55 PM 43.0 °F - 39.9 °F 89% 29.89 in 10.0 mi Calm Calm - N/A   Partly Cloudy
9:55 PM 43.0 °F - 39.9 °F 89% 29.90 in 9.0 mi Calm Calm - N/A   Partly Cloudy
10:55 PM 41.0 °F - 37.9 °F 89% 29.91 in 9.0 mi Calm Calm - N/A   Partly Cloudy
11:55 PM 39.9 °F - 37.0 °F 89% 29.91 in - Calm Calm - N/A   Clear